This is the latest recevied weather packets stored in our database for station/object KD8UYA. If no packets are shown the sender has not sent any weather packets the latest 10 day(s).
| Time | Temp. | Humidity | Pressure | Rain* | Wind** | Luminosity | Snow |
|---|---|---|---|---|---|---|---|
| 1778299241 | 10° C | 97% | 1007.8 hPa | 1.02 mm | - | - | - |
| 1778298340 | 10° C | 97% | 1008 hPa | 0.76 mm | - | - | - |
| 1778297435 | 10° C | 97% | 1008.1 hPa | 0.76 mm | - | - | - |
| 1778296551 | 10° C | 97% | 1008.3 hPa | 0.76 mm | - | - | - |
| 1778295656 | 10° C | 96% | 1008.5 hPa | 0.25 mm | - | - | - |
| 1778294739 | 10° C | 96% | 1008.5 hPa | 0.25 mm | - | - | - |
| 1778293836 | 10° C | 96% | 1008.5 hPa | 0 mm | - | - | - |
| 1778292938 | 10° C | 97% | 1008.3 hPa | 0 mm | - | - | - |
| 1778292032 | 10° C | 97% | 1008.4 hPa | 0.25 mm | - | - | - |
| 1778291132 | 10° C | 97% | 1008.4 hPa | 0.51 mm | - | - | - |
| 1778290232 | 10° C | 97% | 1008.3 hPa | 0.76 mm | - | - | - |
| 1778289331 | 10° C | 97% | 1008.4 hPa | 1.02 mm | - | - | - |
| 1778288431 | 10° C | 97% | 1008.3 hPa | 1.27 mm | - | - | - |
| 1778287541 | 10° C | 97% | 1008.2 hPa | 1.27 mm | - | - | - |
| 1778286635 | 10° C | 97% | 1008.2 hPa | 1.52 mm | - | - | - |
| 1778285731 | 10° C | 97% | 1008.4 hPa | 2.03 mm | - | - | - |
| 1778284829 | 10° C | 96% | 1008.4 hPa | 2.03 mm | - | - | - |
| 1778283928 | 10° C | 96% | 1008.1 hPa | 2.03 mm | - | - | - |
| 1778283028 | 10° C | 96% | 1008.2 hPa | 2.29 mm | - | - | - |
| 1778282127 | 10° C | 96% | 1008.1 hPa | 2.54 mm | - | - | - |
| 1778281226 | 10° C | 96% | 1008.1 hPa | 2.29 mm | - | - | - |
| 1778280328 | 10° C | 95% | 1008 hPa | 2.79 mm | - | - | - |
| 1778279440 | 10° C | 95% | 1008.4 hPa | 2.03 mm | - | - | - |
| 1778278525 | 10° C | 95% | 1008.2 hPa | 1.27 mm | - | - | - |
| 1778277624 | 10° C | 94% | 1008.1 hPa | 1.52 mm | - | - | - |
* Rain latest hour (hover to see other rain measurements)
** Current wind speed in m/s (hover to see current wind gust speed)